TimeEDT,TemperatureF,Dew PointF,Humidity,Sea Level PressureIn,VisibilityMPH,Wind Direction,Wind SpeedMPH,Gust SpeedMPH,PrecipitationIn,Events,Conditions,WindDirDegrees,DateUTC
12:15 AM,64.4,64.4,100,30.22,7.0,Calm,Calm,-,N/A,,Clear,0,2013-08-27 04:15:00
12:35 AM,64.4,64.4,100,30.22,10.0,Calm,Calm,-,N/A,,Clear,0,2013-08-27 04:35:00
12:55 AM,62.6,62.6,100,30.21,10.0,Calm,Calm,-,N/A,,Clear,0,2013-08-27 04:55:00
1:15 AM,62.6,62.6,100,30.20,7.0,Calm,Calm,-,N/A,,Clear,0,2013-08-27 05:15:00
1:35 AM,62.6,62.6,100,30.20,7.0,Calm,Calm,-,N/A,,Clear,0,2013-08-27 05:35:00
1:55 AM,62.6,62.6,100,30.20,5.0,SSW,3.5,-,N/A,,Clear,210,2013-08-27 05:55:00
2:15 AM,62.6,62.6,100,30.19,5.0,Calm,Calm,-,N/A,,Clear,0,2013-08-27 06:15:00
2:35 AM,62.6,62.6,100,30.18,7.0,West,3.5,-,N/A,,Clear,260,2013-08-27 06:35:00
2:55 AM,62.6,62.6,100,30.18,7.0,West,4.6,-,N/A,,Clear,260,2013-08-27 06:55:00
3:15 AM,62.6,60.8,94,30.18,7.0,West,3.5,-,N/A,,Clear,280,2013-08-27 07:15:00
3:35 AM,62.6,60.8,94,30.17,7.0,Calm,Calm,-,N/A,,Clear,0,2013-08-27 07:35:00
3:55 AM,60.8,60.8,100,30.17,5.0,SW,3.5,-,N/A,,Clear,230,2013-08-27 07:55:00
4:15 AM,60.8,60.8,100,30.17,5.0,Calm,Calm,-,N/A,,Clear,0,2013-08-27 08:15:00
4:35 AM,60.8,60.8,100,30.17,5.0,Calm,Calm,-,N/A,,Clear,0,2013-08-27 08:35:00
4:55 AM,60.8,60.8,100,30.17,5.0,Calm,Calm,-,N/A,,Clear,0,2013-08-27 08:55:00
5:15 AM,60.8,60.8,100,30.17,5.0,Calm,Calm,-,N/A,,Clear,0,2013-08-27 09:15:00
5:35 AM,60.8,60.8,100,30.17,7.0,Calm,Calm,-,N/A,,Clear,0,2013-08-27 09:35:00
5:55 AM,60.8,60.8,100,30.16,7.0,Calm,Calm,-,N/A,,Clear,0,2013-08-27 09:55:00
6:15 AM,60.8,60.8,100,30.17,7.0,Calm,Calm,-,N/A,,Clear,0,2013-08-27 10:15:00
6:35 AM,60.8,60.8,100,30.17,5.0,Calm,Calm,-,N/A,,Clear,0,2013-08-27 10:35:00
6:55 AM,60.8,60.8,100,30.17,4.0,Calm,Calm,-,N/A,,Clear,0,2013-08-27 10:55:00
7:15 AM,60.8,60.8,100,30.17,4.0,Calm,Calm,-,N/A,,Clear,0,2013-08-27 11:15:00
7:35 AM,60.8,60.8,100,30.17,7.0,Calm,Calm,-,N/A,,Clear,0,2013-08-27 11:35:00
7:55 AM,62.6,60.8,94,30.18,5.0,Calm,Calm,-,N/A,,Clear,0,2013-08-27 11:55:00
8:15 AM,64.4,62.6,94,30.17,7.0,Calm,Calm,-,N/A,,Clear,0,2013-08-27 12:15:00
8:35 AM,64.4,62.6,94,30.17,10.0,Calm,Calm,-,N/A,,Clear,0,2013-08-27 12:35:00
8:55 AM,68.0,64.4,88,30.17,10.0,Calm,Calm,-,N/A,,Clear,0,2013-08-27 12:55:00
9:15 AM,69.8,64.4,83,30.17,10.0,SW,3.5,-,N/A,,Clear,220,2013-08-27 13:15:00
9:35 AM,71.6,66.2,83,30.17,10.0,Calm,Calm,-,N/A,,Clear,0,2013-08-27 13:35:00
9:55 AM,71.6,68.0,88,30.17,10.0,Calm,Calm,-,N/A,,Clear,0,2013-08-27 13:55:00
10:15 AM,75.2,68.0,78,30.16,10.0,SW,5.8,-,N/A,,Clear,230,2013-08-27 14:15:00
10:35 AM,77.0,68.0,74,30.17,10.0,SSW,3.5,-,N/A,,Clear,210,2013-08-27 14:35:00
10:55 AM,78.8,69.8,74,30.17,10.0,SW,3.5,-,N/A,,Clear,220,2013-08-27 14:55:00
11:15 AM,80.6,69.8,70,30.16,10.0,WSW,4.6,-,N/A,,Clear,240,2013-08-27 15:15:00
11:35 AM,80.6,68.0,65,30.16,10.0,West,3.5,-,N/A,,Clear,280,2013-08-27 15:35:00
11:55 AM,80.6,66.2,61,30.15,10.0,NNW,3.5,-,N/A,,Clear,330,2013-08-27 15:55:00
12:15 PM,82.4,66.2,58,30.15,10.0,NNE,8.1,-,N/A,,Clear,20,2013-08-27 16:15:00
12:35 PM,82.4,66.2,58,30.15,10.0,North,6.9,-,N/A,,Clear,10,2013-08-27 16:35:00
12:55 PM,82.4,64.4,54,30.14,10.0,NNW,4.6,-,N/A,,Clear,340,2013-08-27 16:55:00
1:15 PM,84.2,64.4,51,30.14,10.0,NNW,3.5,-,N/A,,Clear,330,2013-08-27 17:15:00
1:35 PM,84.2,64.4,51,30.13,10.0,NNE,11.5,-,N/A,,Clear,30,2013-08-27 17:35:00
1:55 PM,86.0,66.2,51,30.13,10.0,North,9.2,-,N/A,,Clear,10,2013-08-27 17:55:00
2:15 PM,86.0,64.4,48,30.13,10.0,North,6.9,-,N/A,,Clear,350,2013-08-27 18:15:00
2:35 PM,86.0,64.4,48,30.12,10.0,NW,9.2,-,N/A,,Clear,320,2013-08-27 18:35:00
2:55 PM,86.0,66.2,51,30.11,10.0,NW,8.1,-,N/A,,Clear,310,2013-08-27 18:55:00
3:15 PM,84.2,64.4,51,30.11,10.0,NNW,5.8,-,N/A,,Scattered Clouds,340,2013-08-27 19:15:00
3:35 PM,84.2,64.4,51,30.10,10.0,NW,5.8,-,N/A,,Clear,320,2013-08-27 19:35:00
3:55 PM,86.0,68.0,55,30.10,10.0,WNW,4.6,-,N/A,,Clear,300,2013-08-27 19:55:00
4:15 PM,86.0,64.4,48,30.10,10.0,North,5.8,-,N/A,,Clear,360,2013-08-27 20:15:00
4:35 PM,86.0,66.2,51,30.10,10.0,NW,4.6,-,N/A,,Clear,320,2013-08-27 20:35:00
4:55 PM,84.2,64.4,51,30.10,10.0,NE,3.5,-,N/A,,Clear,40,2013-08-27 20:55:00
5:15 PM,86.0,68.0,55,30.10,10.0,Calm,Calm,-,N/A,,Scattered Clouds,0,2013-08-27 21:15:00
5:35 PM,84.2,66.2,55,30.10,10.0,NW,5.8,-,N/A,,Mostly Cloudy,310,2013-08-27 21:35:00
5:55 PM,82.4,68.0,62,30.10,10.0,Calm,Calm,-,N/A,,Mostly Cloudy,0,2013-08-27 21:55:00
6:15 PM,80.6,68.0,65,30.10,10.0,Calm,Calm,-,N/A,,Scattered Clouds,0,2013-08-27 22:15:00
6:35 PM,78.8,69.8,74,30.10,10.0,NW,3.5,-,N/A,,Scattered Clouds,320,2013-08-27 22:35:00
6:55 PM,78.8,69.8,74,30.10,10.0,Calm,Calm,-,N/A,,Clear,0,2013-08-27 22:55:00
7:15 PM,77.0,69.8,78,30.09,10.0,Calm,Calm,-,N/A,,Clear,0,2013-08-27 23:15:00
7:35 PM,77.0,68.0,74,30.10,10.0,Calm,Calm,-,N/A,,Clear,0,2013-08-27 23:35:00
7:55 PM,73.4,68.0,83,30.10,7.0,Calm,Calm,-,N/A,,Clear,0,2013-08-27 23:55:00
8:15 PM,71.6,69.8,94,30.10,7.0,West,3.5,-,N/A,,Clear,280,2013-08-28 00:15:00
8:35 PM,71.6,69.8,94,30.10,10.0,Calm,Calm,-,N/A,,Clear,0,2013-08-28 00:35:00
8:55 PM,73.4,69.8,88,30.10,10.0,NW,3.5,-,N/A,,Clear,310,2013-08-28 00:55:00
9:15 PM,71.6,68.0,88,30.10,10.0,NW,4.6,-,N/A,,Clear,310,2013-08-28 01:15:00
9:35 PM,73.4,68.0,83,30.10,10.0,WNW,4.6,-,N/A,,Clear,290,2013-08-28 01:35:00
9:55 PM,71.6,68.0,88,30.11,10.0,Calm,Calm,-,N/A,,Clear,0,2013-08-28 01:55:00
10:15 PM,71.6,68.0,88,30.11,7.0,Calm,Calm,-,N/A,,Clear,0,2013-08-28 02:15:00
10:35 PM,69.8,68.0,94,30.12,7.0,Calm,Calm,-,N/A,,Clear,0,2013-08-28 02:35:00
10:55 PM,69.8,68.0,94,30.12,7.0,Calm,Calm,-,N/A,,Clear,0,2013-08-28 02:55:00
11:15 PM,69.8,68.0,94,30.12,7.0,Calm,Calm,-,N/A,,Clear,0,2013-08-28 03:15:00
11:35 PM,68.0,68.0,100,30.12,4.0,Calm,Calm,-,N/A,,Clear,0,2013-08-28 03:35:00
11:55 PM,69.8,68.0,94,30.11,7.0,Calm,Calm,-,N/A,,Clear,0,2013-08-28 03:55:00